ProjectID,Date,Electric Generation,Electric Utility Import,Facility Electric Load
,YYYY-MM-DD,kW,kW,kW
23,2005-06-01,0.0,0.0,0.0
23,2005-06-02,0.0,0.0,0.0
23,2005-06-03,0.0,0.0,0.0
23,2005-06-04,0.0,0.0,0.0
23,2005-06-05,0.0,0.0,0.0
23,2005-06-06,0.0,0.0,0.0
23,2005-06-07,0.0,0.0,0.0
23,2005-06-08,0.0,0.0,0.0
23,2005-06-09,0.0,0.0,0.0
23,2005-06-10,0.0,0.0,0.0
23,2005-06-11,0.0,0.0,0.0
23,2005-06-12,0.0,0.0,0.0
23,2005-06-13,0.0,0.0,0.0
23,2005-06-14,0.0,0.0,0.0
23,2005-06-15,0.0,0.0,0.0
23,2005-06-16,0.0,0.0,0.0
23,2005-06-17,0.0,0.0,0.0
23,2005-06-18,0.0,0.0,0.0
23,2005-06-19,0.0,0.0,0.0
23,2005-06-20,0.0,0.0,0.0
23,2005-06-21,0.0,0.0,0.0
23,2005-06-22,0.0,0.0,0.0
23,2005-06-23,0.0,0.0,0.0
23,2005-06-24,0.0,0.041666666666666664,0.041666666666666664
23,2005-06-25,31.582333333333334,0.0,31.582333333333334
23,2005-06-26,39.83054166666667,0.0,39.83054166666667
23,2005-06-27,35.72120833333333,0.0,35.72120833333333
23,2005-06-28,43.75575,0.0,43.75575
23,2005-06-29,51.483958333333334,0.0,51.483958333333334
23,2005-06-30,54.97804166666666,0.0,54.97804166666666
23,2005-07-01,45.882749999999994,0.0,45.882749999999994
23,2005-07-02,34.80358333333333,0.0,34.80358333333333
23,2005-07-03,38.367,0.0,38.367
23,2005-07-04,35.95725,0.0,35.95725
23,2005-07-05,41.470875,0.0,41.470875
23,2005-07-06,42.74545833333334,0.0,42.74545833333334
23,2005-07-07,55.25991666666667,0.0,55.25991666666667
23,2005-07-08,68.39166666666667,0.0,68.39166666666667
23,2005-07-09,45.51075,0.0,45.51075
23,2005-07-10,59.290375000000004,0.0,59.290375000000004
23,2005-07-11,53.18533333333334,0.0,53.18533333333334
23,2005-07-12,56.629416666666664,0.0,56.629416666666664
23,2005-07-13,59.416583333333335,0.0,59.416583333333335
23,2005-07-14,64.80270833333334,0.0,64.80270833333334
23,2005-07-15,62.54420833333333,0.0,62.54420833333333
23,2005-07-16,52.88066666666666,0.0,52.88066666666666
23,2005-07-17,41.3635,0.0,41.3635
23,2005-07-18,21.094541666666668,0.0,21.094541666666668
23,2005-07-19,29.242791666666665,0.0,29.242791666666665
23,2005-07-20,56.262791666666665,0.0,56.262791666666665
23,2005-07-21,58.87295833333334,0.0,58.87295833333334
23,2005-07-22,51.47479166666667,0.0,51.47479166666667
23,2005-07-23,39.48791666666667,0.0,39.48791666666667
23,2005-07-24,43.81908333333333,0.0,43.81908333333333
23,2005-07-25,18.8815,0.0,18.8815
23,2005-07-26,36.12741666666667,0.0,36.12741666666667
23,2005-07-27,44.558166666666665,0.0,44.558166666666665
23,2005-07-28,56.650625,0.0,56.650625
23,2005-07-29,60.348166666666664,0.0,60.348166666666664
23,2005-07-30,48.767291666666665,0.0,48.767291666666665
23,2005-07-31,46.135875,0.0,46.135875
23,2005-08-01,43.110458333333334,0.0,43.110458333333334
23,2005-08-02,44.571958333333335,0.0,44.571958333333335
23,2005-08-03,46.84270833333333,0.0,46.84270833333333
23,2005-08-04,52.989749999999994,0.0,52.989749999999994
23,2005-08-05,60.13575,0.0,60.13575
23,2005-08-06,54.864916666666666,0.0,54.864916666666666
23,2005-08-07,0.050416666666666665,0.0,0.050416666666666665
23,2005-08-08,37.916875,0.0,37.916875
23,2005-08-09,42.5775,0.0,42.5775
23,2005-08-10,59.56716666666667,0.0,59.56716666666667
23,2005-08-11,60.42795833333333,0.0,60.42795833333333
23,2005-08-12,63.724,0.0,63.724
23,2005-08-13,57.214124999999996,0.0,57.214124999999996
23,2005-08-14,50.85870833333333,0.0,50.85870833333333
23,2005-08-15,55.64145833333333,0.0,55.64145833333333
23,2005-08-16,56.194291666666665,0.0,56.194291666666665
23,2005-08-17,56.242916666666666,0.0,56.242916666666666
23,2005-08-18,54.32941666666667,0.0,54.32941666666667
23,2005-08-19,62.512166666666666,0.0,62.512166666666666
23,2005-08-20,63.62654166666667,0.0,63.62654166666667
23,2005-08-21,31.756833333333333,0.0,31.756833333333333
23,2005-08-22,49.33041666666667,0.0,49.33041666666667
23,2005-08-23,43.58016666666666,0.0,43.58016666666666
23,2005-08-24,71.92508333333333,0.0,71.92508333333333
23,2005-08-25,48.384791666666665,0.0,48.384791666666665
23,2005-08-26,37.831375,0.0,37.831375
23,2005-08-27,37.25333333333334,0.0,37.25333333333334
23,2005-08-28,36.37883333333333,0.0,36.37883333333333
23,2005-08-29,35.50454166666667,0.0,35.50454166666667
23,2005-08-30,37.73866666666667,0.0,37.73866666666667
23,2005-08-31,51.534416666666665,0.0,51.534416666666665
23,2005-09-01,67.09595833333334,0.0,67.09595833333334
23,2005-09-02,70.62116666666667,0.0,70.62116666666667
23,2005-09-03,54.6455,0.0,54.6455
23,2005-09-04,42.728874999999995,0.0,42.728874999999995
23,2005-09-05,55.808125,0.0,55.808125
23,2005-09-06,48.421,0.0,48.421
23,2005-09-07,64.52220833333332,0.0,64.52220833333332
23,2005-09-08,67.251375,0.0,67.251375
23,2005-09-09,70.46225,0.0,70.46225
23,2005-09-10,54.802083333333336,0.0,54.802083333333336
23,2005-09-11,55.55375,0.0,55.55375
23,2005-09-12,66.59204166666667,0.0,66.59204166666667
23,2005-09-13,64.75170833333333,0.0,64.75170833333333
23,2005-09-14,63.545625,0.0,63.545625
23,2005-09-15,57.679875,0.0,57.679875
23,2005-09-16,70.246,0.0,70.246
23,2005-09-17,59.57179166666666,0.0,59.57179166666666
23,2005-09-18,59.5695,0.0,59.5695
23,2005-09-19,61.531749999999995,0.0,61.531749999999995
23,2005-09-20,59.71266666666667,0.0,59.71266666666667
23,2005-09-21,63.60441666666667,0.0,63.60441666666667
23,2005-09-22,65.36241666666668,0.0,65.36241666666668
23,2005-09-23,65.38850000000001,0.0,65.38850000000001
23,2005-09-24,58.92008333333334,0.0,58.92008333333334
23,2005-09-25,49.425000000000004,0.0,49.425000000000004
23,2005-09-26,51.24258333333333,0.0,51.24258333333333
23,2005-09-27,59.304541666666665,0.0,59.304541666666665
23,2005-09-28,70.63054166666667,0.0,70.63054166666667
23,2005-09-29,57.995374999999996,0.0,57.995374999999996
23,2005-09-30,51.395250000000004,0.0,51.395250000000004
23,2005-10-01,39.76016666666667,0.0,39.76016666666667
23,2005-10-02,39.38829166666667,0.0,39.38829166666667
23,2005-10-03,43.53029166666667,0.0,43.53029166666667
23,2005-10-04,49.71629166666667,0.0,49.71629166666667
23,2005-10-05,46.869125,0.0,46.869125
23,2005-10-06,57.65270833333333,11.129166666666668,68.781875
23,2005-10-07,45.070125,-1.7666666666666666,43.30345833333333
23,2005-10-08,38.113166666666665,-4.691666666666666,33.421499999999995
23,2005-10-09,39.93020833333333,3.704166666666667,43.634375
23,2005-10-10,40.62108333333333,1.0458333333333334,41.666916666666665
23,2005-10-11,39.855041666666665,-0.3416666666666666,39.513374999999996
23,2005-10-12,36.625708333333336,-2.8625000000000003,33.76320833333334
23,2005-10-13,39.236583333333336,1.3791666666666667,40.615750000000006
23,2005-10-14,39.97866666666667,1.1208333333333333,41.0995
23,2005-10-15,37.637791666666665,0.14999999999999958,37.787791666666664
23,2005-10-16,39.150875,2.3833333333333333,41.53420833333333
23,2005-10-17,34.50991666666667,-2.2875,32.22241666666667
23,2005-10-18,27.288875,-12.8375,14.451375
23,2005-10-19,29.86129166666667,-2.4541666666666666,27.407125000000004
23,2005-10-20,34.240125,0.3958333333333333,34.635958333333335
23,2005-10-21,41.28129166666667,8.887500000000001,50.16879166666667
23,2005-10-22,41.03420833333333,9.716666666666667,50.750875
23,2005-10-23,42.18066666666667,13.245833333333332,55.4265
23,2005-10-24,30.341416666666664,-0.5875,29.753916666666665
23,2005-10-25,27.883458333333333,-3.1125000000000003,24.770958333333333
23,2005-10-26,33.32233333333333,0.4916666666666667,33.814
23,2005-10-27,32.363458333333334,1.7874999999999999,34.150958333333335
23,2005-10-28,35.894625,2.2875,38.182125
23,2005-10-29,37.38925,6.316666666666666,43.70591666666667
23,2005-10-30,34.34229166666667,2.5541666666666667,36.896458333333335
23,2005-10-31,28.928875,-4.8,24.128875
23,2005-11-01,34.742375,0.8958333333333334,35.63820833333334
23,2005-11-02,35.545208333333335,3.7458333333333336,39.29104166666667
23,2005-11-03,36.31283333333334,1.7874999999999999,38.10033333333334
23,2005-11-04,36.314458333333334,1.7541666666666667,38.068625000000004
23,2005-11-05,36.820625,3.2291666666666665,40.049791666666664
23,2005-11-06,34.692083333333336,1.0916666666666666,35.783750000000005
23,2005-11-07,28.576999999999998,-7.279166666666666,21.297833333333333
23,2005-11-08,39.138,3.875,43.013
23,2005-11-09,39.92270833333333,7.449958333333334,47.37266666666667
23,2005-11-10,31.975333333333335,-1.2291666666666667,30.746166666666667
23,2005-11-11,32.165875,1.1916666666666667,33.35754166666667
23,2005-11-12,27.86916666666667,-1.191625,26.67754166666667
23,2005-11-13,13.892125,-17.2,-3.3078749999999992
23,2005-11-14,10.814458333333334,-23.629166666666666,-12.814708333333332
23,2005-11-15,12.375041666666666,-19.75,-7.374958333333334
23,2005-11-16,8.886041666666666,-25.279208333333333,-16.393166666666666
23,2005-11-17,4.412958333333333,-25.7,-21.287041666666667
23,2005-11-18,3.5030416666666664,-25.995833333333334,-22.49279166666667
23,2005-11-19,0.641,-28.59166666666667,-27.95066666666667
23,2005-11-20,0.0,-27.020791666666668,-27.020791666666668
23,2005-11-21,1.72625,-29.154208333333333,-27.427958333333333
23,2005-11-22,0.0,-32.13754166666667,-32.13754166666667
23,2005-11-23,0.0,-30.979125,-30.979125
23,2005-11-24,0.0,-25.895833333333332,-25.895833333333332
23,2005-11-25,0.0,-30.950083333333335,-30.950083333333335
23,2005-11-26,0.0,-28.008416666666665,-28.008416666666665
23,2005-11-27,0.0,-28.941666666666666,-28.941666666666666
23,2005-11-28,0.0,-33.429125,-33.429125
23,2005-11-29,1.1245,-31.733166666666666,-30.608666666666664
23,2005-11-30,1.4861250000000001,-32.15,-30.663874999999997
23,2005-12-01,0.8927083333333333,-31.741708333333335,-30.849
23,2005-12-02,0.7340833333333333,-29.404124999999997,-28.670041666666663
23,2005-12-03,1.8999166666666667,-27.98754166666667,-26.087625000000003
23,2005-12-04,0.40520833333333334,-27.837541666666667,-27.432333333333332
23,2005-12-05,2.9450416666666666,-31.745833333333334,-28.80079166666667
23,2005-12-06,5.856583333333333,-33.80825,-27.951666666666668
23,2005-12-07,7.235791666666667,-29.775000000000002,-22.539208333333335
23,2005-12-08,11.627125,-27.324916666666667,-15.697791666666667
23,2005-12-09,7.679708333333333,-29.479166666666668,-21.799458333333334
23,2005-12-10,16.332166666666666,-20.862375,-4.530208333333334
23,2005-12-11,14.858708333333333,-20.58341666666667,-5.724708333333336
23,2005-12-12,15.916791666666667,-23.758375,-7.841583333333334
23,2005-12-13,16.575,-21.033291666666667,-4.458291666666668
23,2005-12-14,19.07425,-19.61254166666667,-0.5382916666666695
23,2005-12-15,19.757625,-15.229208333333332,4.5284166666666685
23,2005-12-16,15.841666666666667,-17.2085,-1.366833333333334
23,2005-12-17,20.001875000000002,-10.270916666666666,9.730958333333335
23,2005-12-18,20.398041666666668,-8.862499999999999,11.535541666666669
23,2005-12-19,16.646291666666666,-18.437416666666667,-1.791125000000001
23,2005-12-20,17.85475,-14.741583333333333,3.1131666666666664
23,2005-12-21,20.1245,-14.458333333333334,5.666166666666667
23,2005-12-22,20.003208333333333,-13.374916666666666,6.628291666666668
23,2005-12-23,16.80633333333333,-16.92504166666667,-0.11870833333333763
23,2005-12-24,21.445999999999998,-9.929041666666667,11.516958333333331
23,2005-12-25,20.42983333333333,-10.9125,9.517333333333331
23,2005-12-26,22.10829166666667,-11.933375,10.17491666666667
23,2005-12-27,20.242541666666668,-11.15825,9.084291666666667
23,2005-12-28,20.068916666666667,-13.183375,6.885541666666667
23,2005-12-29,20.426708333333334,-14.416583333333334,6.010125
23,2005-12-30,20.392833333333332,-11.937583333333334,8.455249999999998
23,2005-12-31,23.801625,-7.312541666666667,16.489083333333333
23,2006-01-01,24.955291666666668,-7.399958333333333,17.555333333333333
23,2006-01-02,25.034125,-8.79175,16.242375
23,2006-01-03,25.20958333333333,-8.100041666666668,17.109541666666665
23,2006-01-04,12.057583333333334,-22.833291666666668,-10.775708333333334
23,2006-01-05,13.859708333333332,-22.595791666666667,-8.736083333333335
23,2006-01-06,14.808541666666665,-17.558375,-2.7498333333333367
23,2006-01-07,21.46066666666667,-12.208333333333334,9.252333333333334
23,2006-01-08,21.139416666666666,-11.020874999999998,10.118541666666667
23,2006-01-09,20.313708333333334,-13.737583333333333,6.576125000000001
23,2006-01-10,24.305541666666667,-9.270708333333333,15.034833333333333
23,2006-01-11,23.648041666666668,-11.000083333333334,12.647958333333333
23,2006-01-12,24.94775,-9.029166666666667,15.918583333333332
23,2006-01-13,26.525625,-6.241791666666667,20.283833333333334
23,2006-01-14,27.748,-3.591666666666667,24.156333333333336
23,2006-01-15,25.898791666666668,-4.916916666666666,20.981875000000002
23,2006-01-16,27.87025,-5.699958333333334,22.170291666666664
23,2006-01-17,30.32875,-2.2375833333333333,28.091166666666666
23,2006-01-18,29.976916666666668,-3.691708333333333,26.285208333333333
23,2006-01-19,33.09320833333333,0.17079166666666667,33.263999999999996
23,2006-01-20,34.484208333333335,0.75425,35.238458333333334
23,2006-01-21,27.275291666666664,-4.616666666666666,22.658624999999997
23,2006-01-22,30.455875000000002,0.9916666666666667,31.44754166666667
23,2006-01-23,35.29079166666667,2.5540833333333333,37.844875
23,2006-01-24,37.81883333333334,5.162625,42.981458333333336
23,2006-01-25,30.994958333333333,-0.8667916666666667,30.128166666666665
23,2006-01-26,28.6455,-8.062458333333334,20.583041666666666
23,2006-01-27,30.664625,-7.22925,23.435375
23,2006-01-28,29.8325,-8.662458333333333,21.170041666666666
23,2006-01-29,30.91633333333333,-0.5083333333333333,30.407999999999998
23,2006-01-30,20.57345833333333,-13.408458333333334,7.164999999999997
23,2006-01-31,25.588458333333335,-8.237499999999999,17.350958333333338
23,2006-02-01,14.937708333333333,-18.841583333333332,-3.9038749999999993
23,2006-02-02,2.2732916666666667,-28.229166666666668,-25.955875000000002
23,2006-02-03,1.4188333333333334,-31.570833333333336,-30.152000000000005
23,2006-02-04,0.0,-27.749958333333336,-27.749958333333336
23,2006-02-05,0.6849166666666666,-25.996,-25.311083333333332
23,2006-02-06,5.421916666666667,-26.358249999999998,-20.93633333333333
23,2006-02-07,15.262625,-20.158291666666667,-4.895666666666667
23,2006-02-08,15.267791666666668,-17.429333333333332,-2.1615416666666647
23,2006-02-09,17.635125,-16.37075,1.2643749999999976
23,2006-02-10,21.3055,-12.487458333333334,8.818041666666664
23,2006-02-11,27.639791666666667,-4.766625,22.873166666666666
23,2006-02-12,22.003041666666665,-9.049958333333334,12.95308333333333
23,2006-02-13,22.14825,-12.570791666666667,9.577458333333334
23,2006-02-14,26.30695833333333,-7.637458333333334,18.669499999999996
23,2006-02-15,26.964333333333332,-6.7374583333333335,20.226875
23,2006-02-16,15.919583333333334,-15.741750000000001,0.17783333333333218
23,2006-02-17,17.152375,-14.524958333333332,2.627416666666667
23,2006-02-18,20.867083333333333,-10.791625000000002,10.075458333333332
23,2006-02-19,21.061375,-9.412583333333332,11.64879166666667
23,2006-02-20,23.685875,-10.641625,13.04425
23,2006-02-21,27.05995833333333,-5.770916666666667,21.289041666666662
23,2006-02-22,25.309083333333334,-6.987583333333333,18.3215
23,2006-02-23,26.44504166666667,-6.204166666666667,20.240875000000003
23,2006-02-24,29.19741666666667,-2.225166666666667,26.972250000000003
23,2006-02-25,23.331999999999997,-5.866666666666667,17.46533333333333
23,2006-02-26,17.2375,-9.470791666666667,7.766708333333334
23,2006-02-27,22.78770833333333,-11.962375,10.825333333333331
23,2006-02-28,20.9455,-13.762583333333334,7.1829166666666655
23,2006-03-01,21.026291666666665,-10.212416666666668,10.813874999999998
23,2006-03-02,24.66395833333333,-8.712458333333332,15.951499999999998
23,2006-03-03,18.87666666666667,-13.104208333333332,5.772458333333336
23,2006-03-04,13.311833333333333,-18.774958333333334,-5.463125000000002
23,2006-03-05,24.877958333333336,-5.050083333333333,19.827875000000002
23,2006-03-06,27.90641666666667,-5.570875,22.335541666666668
23,2006-03-07,18.50583333333333,-14.529083333333332,3.976749999999999
23,2006-03-08,20.850708333333333,-10.483500000000001,10.367208333333332
23,2006-03-09,21.262,-10.995708333333333,10.266291666666667
23,2006-03-10,22.970583333333334,-10.000041666666666,12.970541666666668
23,2006-03-11,28.606708333333334,-2.3124583333333333,26.29425
23,2006-03-12,25.167833333333334,-3.0457916666666667,22.122041666666668
23,2006-03-13,29.53079166666667,-2.6915833333333334,26.839208333333335
23,2006-03-14,27.600416666666664,-3.0583333333333336,24.54208333333333
23,2006-03-15,27.092624999999998,-4.479208333333333,22.613416666666666
23,2006-03-16,23.207125,-9.095833333333333,14.111291666666668
23,2006-03-17,23.314708333333332,-9.470708333333333,13.844
23,2006-03-18,26.12483333333333,-7.570833333333333,18.554
23,2006-03-19,26.829333333333334,-9.41675,17.412583333333334
23,2006-03-20,23.831041666666668,-17.308291666666666,6.522750000000002
23,2006-03-21,18.314249999999998,-22.991708333333335,-4.6774583333333375
23,2006-03-22,18.426791666666666,-19.895666666666667,-1.4688750000000006
23,2006-03-23,23.202583333333333,-15.795916666666665,7.406666666666668
23,2006-03-24,28.12483333333333,-10.13325,17.99158333333333
23,2006-03-25,32.83291666666667,-6.229166666666667,26.60375
23,2006-03-26,34.39954166666667,-1.5000416666666665,32.8995
23,2006-03-27,29.423625,-8.770916666666666,20.652708333333337
23,2006-03-28,33.27695833333333,-4.349833333333334,28.927125
23,2006-03-29,31.799916666666665,-6.125041666666667,25.674874999999997
23,2006-03-30,26.78804166666667,-11.887625,14.900416666666668
23,2006-03-31,31.65533333333333,-9.516625,22.138708333333334
23,2006-04-01,34.63004166666666,-6.108416666666667,28.521624999999997
23,2006-04-02,29.108166666666666,-5.987291666666667,23.120874999999998
23,2006-04-03,28.83066666666667,-10.91675,17.91391666666667
23,2006-04-04,26.613500000000002,-11.65425,14.959250000000003
23,2006-04-05,33.18845833333334,-9.845916666666666,23.34254166666667
23,2006-04-06,28.309124999999998,-10.508333333333333,17.800791666666665
23,2006-04-07,30.565791666666666,-9.283416666666666,21.282375000000002
23,2006-04-08,28.47129166666667,-9.337375,19.13391666666667
23,2006-04-09,31.95991666666667,-4.51675,27.44316666666667
23,2006-04-10,28.73975,2.4375,31.17725
23,2006-04-11,18.462625,0.0,18.462625
23,2006-04-12,13.166125000000001,0.0,13.166125000000001
23,2006-04-13,2.0061666666666667,0.0,2.0061666666666667
23,2006-04-14,0.0,0.0,0.0
23,2006-04-15,0.0,0.0,0.0
23,2006-04-16,0.0,0.0,0.0
23,2006-04-17,0.0,0.0,0.0
23,2006-04-18,0.0,0.0,0.0
23,2006-04-19,0.0,0.0,0.0
23,2006-04-20,0.0,0.0,0.0
23,2006-04-21,0.0,0.0,0.0
23,2006-04-22,0.0,0.0,0.0
23,2006-04-23,2.389041666666667,-0.3500833333333333,2.0389583333333334
23,2006-04-24,14.278708333333334,-18.829166666666666,-4.5504583333333315
23,2006-04-25,26.426541666666665,-8.341791666666667,18.08475
23,2006-04-26,31.844166666666666,0.3835,32.227666666666664
23,2006-04-27,26.289541666666665,-6.770916666666667,19.518624999999997
23,2006-04-28,31.80841666666667,-1.2958333333333334,30.512583333333335
23,2006-04-29,26.991833333333332,-3.6417916666666668,23.350041666666666
23,2006-04-30,30.325916666666668,1.1832916666666666,31.509208333333333
23,2006-05-01,27.464125,-9.312458333333334,18.151666666666664
23,2006-05-02,24.38054166666667,-11.999875000000001,12.380666666666668
23,2006-05-03,27.214375,-9.133458333333333,18.080916666666667
23,2006-05-04,30.250041666666664,-6.229125,24.020916666666665
23,2006-05-05,30.78225,-8.358375,22.423875000000002
23,2006-05-06,32.34966666666667,-2.2125833333333333,30.137083333333337
23,2006-05-07,20.019708333333334,-12.354125000000002,7.665583333333332
23,2006-05-08,19.61225,-15.887708333333334,3.7245416666666653
23,2006-05-09,25.582875,-11.224874999999999,14.358000000000002
23,2006-05-10,26.392625,-12.108125000000001,14.284499999999998
23,2006-05-11,30.772833333333335,-6.812625,23.960208333333334
23,2006-05-12,22.292291666666667,-16.57925,5.713041666666669
23,2006-05-13,33.08433333333333,-5.062375,28.021958333333334
23,2006-05-14,32.31404166666667,-5.987583333333333,26.326458333333335
23,2006-05-15,31.897125,-9.391666666666667,22.50545833333333
23,2006-05-16,33.3285,-3.3041250000000004,30.024375
23,2006-05-17,33.759499999999996,-3.4751666666666665,30.28433333333333
23,2006-05-18,34.757125,-3.358458333333333,31.39866666666667
23,2006-05-19,35.612125,-2.6665,32.945625
23,2006-05-20,34.653,0.8041666666666667,35.457166666666666
23,2006-05-21,30.06175,-2.5166666666666666,27.545083333333334
23,2006-05-22,25.726791666666667,-15.046,10.680791666666668
23,2006-05-23,26.723916666666668,-9.020958333333333,17.702958333333335
23,2006-05-24,28.839958333333332,-3.520583333333333,25.319374999999997
23,2006-05-25,26.048833333333334,-10.57925,15.469583333333334
23,2006-05-26,32.38708333333333,-8.000208333333333,24.386874999999996
23,2006-05-27,31.792875,-7.454249999999999,24.338625
23,2006-05-28,19.000833333333333,-18.129208333333334,0.8716249999999981
23,2006-05-29,7.981583333333333,-33.729125,-25.74754166666667
23,2006-05-30,8.965958333333333,-37.679125,-28.713166666666666
23,2006-05-31,10.927999999999999,-36.246,-25.318000000000005
23,2006-06-01,26.014625,-24.0665,1.9481249999999974
23,2006-06-02,25.635583333333333,-22.337416666666666,3.298166666666667
23,2006-06-03,25.414291666666667,-22.508583333333334,2.905708333333333
23,2006-06-04,25.552958333333333,-23.866666666666664,1.6862916666666692
23,2006-06-05,26.341541666666668,-20.08729166666667,6.254249999999999
23,2006-06-06,26.009583333333335,-19.474999999999998,6.534583333333337
23,2006-06-07,21.724625,-24.270791666666668,-2.546166666666668
23,2006-06-08,21.57120833333333,-26.516833333333334,-4.945625000000003
23,2006-06-09,24.709,-22.166625,2.542375
23,2006-06-10,24.277416666666667,-20.320916666666665,3.956500000000002
23,2006-06-11,23.029625,-20.233166666666666,2.7964583333333337
23,2006-06-12,21.35258333333333,-23.679374999999997,-2.326791666666665
23,2006-06-13,21.611,-23.137416666666667,-1.526416666666666
23,2006-06-14,14.537666666666667,-32.14145833333333,-17.603791666666666
23,2006-06-15,26.619,-20.71675,5.902249999999999
23,2006-06-16,17.680041666666668,-23.104208333333332,-5.424166666666665
23,2006-06-17,10.463791666666667,-29.720958333333332,-19.257166666666663
23,2006-06-18,0.0,-47.44591666666667,-47.44591666666667
23,2006-06-19,0.0,-47.533208333333334,-47.533208333333334
23,2006-06-20,0.0,-47.65016666666667,-47.65016666666667
23,2006-06-21,1.1202916666666667,-44.754250000000006,-43.63395833333334
23,2006-06-22,0.3104166666666667,4.166625,4.477041666666667
23,2006-06-23,22.684083333333334,25.754333333333335,48.43841666666667
23,2006-06-24,41.313875,4.820791666666667,46.13466666666667
23,2006-06-25,40.123625,7.079083333333333,47.202708333333334
23,2006-06-26,45.168375,7.562625,52.730999999999995
23,2006-06-27,55.56570833333333,-3.962666666666667,51.60304166666667
23,2006-06-28,50.933166666666665,-8.545583333333333,42.38758333333333
23,2006-06-29,49.94208333333333,-1.7042916666666665,48.23779166666666
23,2006-06-30,52.254041666666666,-7.1334583333333335,45.12058333333333
23,2006-07-01,46.304916666666664,3.833458333333333,50.138374999999996
23,2006-07-02,39.931625000000004,8.183166666666667,48.11479166666667
23,2006-07-03,39.5475,10.371,49.9185
23,2006-07-04,53.764250000000004,-3.6292916666666666,50.13495833333334
23,2006-07-05,45.63858333333334,1.2252083333333335,46.86379166666667
23,2006-07-06,46.28820833333333,1.04575,47.33395833333333
23,2006-07-07,40.0115,4.016666666666667,44.028166666666664
23,2006-07-08,43.812875,18.891625,62.704499999999996
23,2006-07-09,42.457625,12.220916666666668,54.67854166666667
23,2006-07-10,41.102291666666666,13.687624999999999,54.78991666666666
23,2006-07-11,39.747625,4.995833333333334,44.743458333333336
23,2006-07-12,38.39225,0.750125,39.142374999999994
23,2006-07-13,37.03704166666667,-3.5544166666666666,33.482625